Simultaneous Nadir Overpasses (SNOs) Predictions

Prediction of SNOs between NOAA-19 and TERRA Satellite Orbit:

Table of predicted SNOs for the next 14.0 days since TLE Epoch: 12/4/2021
Index Date (NOAA-19) Time (NOAA-19) Lat,Lon (NOAA-19) SZA (NOAA-19 ) Date (TERRA) Time (TERRA) Lat,Lon (TERRA) SZA (TERRA ) Distance(km) Time Diff (sec)
1 12/05/2021 10:10:38 80.56, 62.12 104.75 12/05/2021 10:11:48 80.55, 62.20 104.78 1.66 70
2 12/05/2021 11:01:42 -80.55,-130.25 75.23 12/05/2021 11:01:15 -80.55,-130.23 75.24 0.39 27
3 12/07/2021 16:34:42 80.56, -33.71 105.00 12/07/2021 16:34:55 80.55, -33.63 105.01 1.70 13
4 12/09/2021 22:07:52 -80.57, 62.91 74.81 12/09/2021 22:08:36 -80.54, 62.85 74.82 2.78 44
5 12/09/2021 22:58:46 80.55,-129.55 105.22 12/09/2021 22:58:02 80.54,-129.48 105.20 1.70 44
6 12/12/2021 04:31:55 -80.55, -32.60 74.61 12/12/2021 04:31:42 -80.57, -32.70 74.62 2.76 13
7 12/14/2021 10:04:55 80.57, 63.80 105.49 12/14/2021 10:05:22 80.55, 63.75 105.49 1.71 27
8 12/14/2021 10:55:59 -80.55,-128.48 74.48 12/14/2021 10:54:49 -80.55,-128.61 74.52 2.52 70
9 12/16/2021 15:38:05 -80.58, 160.34 74.44 12/16/2021 15:39:02 -80.57, 160.50 74.41 3.00 57



Historial Predications of SNOs between NOAA-19 and TERRA
